Cross City, FL

5:11 PM EST on December 05, 2019 (GMT -0500)
Cross City

Weather History for KCTY - November, 2019

Change the Weather History Date:

Wednesday, November 13, 2019

  Actual Average Record
Temperature  
Mean Temperature 47 °F 63 °F  
Max Temperature 53 °F 77 °F 86 °F (2018)
Min Temperature 40 °F 50 °F 36 °F (2010)
Degree Days  
Heating Degree Days 18    
Month to date heating degree days 50  
Since 1 July heating degree days 54  
Cooling Degree Days 0    
Month to date cooling degree days 33  
Year to date cooling degree days 3136  
Moisture  
Dew Point 39 °F    
Average Humidity 76    
Maximum Humidity 88    
Minimum Humidity 57    
Precipitation  
Precipitation 0.00 in 0.08 in 0.03 in (2004)
Month to date precipitation 0.18 0.97  
Year to date precipitation 50.67 44.20  
Sea Level Pressure  
Sea Level Pressure 30.18 in    
Wind  
Wind Speed 13 mph (NNE)    
Max Wind Speed 20 mph    
Max Gust Speed 24 mph    
Visibility 10 miles    
Events      
T = Trace of Precipitation, MM = Missing Value Source: NWS Daily Summary

Daily Weather History Graph

Daily Weather History Graph

Search for Another Location

Airport or City:

Astronomy

Nov. 13, 2019 Rise Set
Actual Time 6:55 AM EST 5:37 PM EST
Civil Twilight 6:29 AM EST 6:03 PM EST
Nautical Twilight 6:01 AM EST 6:31 PM EST
Astronomical Twilight 5:32 AM EST 7:00 PM EST
Moon 6:42 PM EST (11/13) 7:46 AM EST (11/13)
Length of Visible Light 11h 33m
Length of Day
10h 42m
Full, 99% of the Moon is Illuminated
Nov 13
Full
Nov 19
Last Quarter
Nov 26
New
Dec 4
First Quarter
Dec 12
Full

Hourly Weather History & Observations

Time (EST) Temp. Windchill Dew Point Humidity Pressure Visibility Wind Dir Wind Speed Gust Speed Precip Events Conditions
12:15 AM 46.6 °F - 38.5 °F 73% 30.11 in 10.0 mi NNE 11.5 mph - N/A   Unknown
12:35 AM 46.8 °F - 38.8 °F 74% 30.11 in 10.0 mi North 11.5 mph 18.4 mph N/A   Unknown
12:55 AM 46.8 °F - 38.7 °F 73% 30.11 in 10.0 mi NNE 16.1 mph - N/A   Unknown
1:15 AM 46.8 °F - 38.7 °F 73% 30.11 in 10.0 mi NNE 12.7 mph - N/A   Unknown
1:35 AM 46.8 °F - 38.7 °F 73% 30.12 in 10.0 mi NNE 15.0 mph - N/A   Unknown
1:55 AM 46.4 °F 40.1 °F 38.5 °F 74% 30.12 in 10.0 mi North 15.0 mph - N/A   Unknown
2:15 AM 46.2 °F 40.5 °F 38.5 °F 74% 30.12 in 10.0 mi NNE 12.7 mph 20.7 mph N/A   Unknown
2:35 AM 46.0 °F 39.9 °F 38.5 °F 75% 30.12 in 10.0 mi NNE 13.8 mph 19.6 mph N/A   Unknown
3:15 AM 45.5 °F 39.6 °F 38.7 °F 77% 30.12 in 10.0 mi NNE 12.7 mph 23.0 mph N/A   Unknown
3:35 AM 45.0 °F 38.5 °F 37.4 °F 75% 30.13 in 10.0 mi North 13.8 mph - N/A   Unknown
3:55 AM 44.4 °F 37.5 °F 36.3 °F 73% 30.13 in 10.0 mi NNE 15.0 mph 23.0 mph N/A   Unknown
4:15 AM 44.4 °F 37.5 °F 36.5 °F 74% 30.13 in 10.0 mi NNE 15.0 mph 20.7 mph N/A   Unknown
4:35 AM 44.2 °F 37.6 °F 36.7 °F 75% 30.14 in 10.0 mi NNE 13.8 mph - N/A   Unknown
4:55 AM 43.2 °F 36.2 °F 36.5 °F 77% 30.14 in 10.0 mi NNE 13.8 mph 19.6 mph N/A   Unknown
5:15 AM 41.9 °F 36.3 °F 36.5 °F 81% 30.15 in 10.0 mi NNE 9.2 mph - N/A   Unknown
5:35 AM 41.5 °F 35.9 °F 36.7 °F 83% 30.16 in 10.0 mi NNE 9.2 mph - N/A   Unknown
5:55 AM 41.5 °F 34.2 °F 36.1 °F 81% 30.17 in 10.0 mi NNE 13.8 mph 17.3 mph N/A   Unknown
6:15 AM 41.0 °F 34.7 °F 36.3 °F 83% 30.17 in 10.0 mi NNE 10.4 mph - N/A   Unknown
6:35 AM 40.6 °F 34.3 °F 36.9 °F 86% 30.18 in 10.0 mi NNE 10.4 mph 17.3 mph N/A   Unknown
6:55 AM 39.9 °F 33.4 °F 36.7 °F 88% 30.18 in 10.0 mi NNE 10.4 mph - N/A   Unknown
7:15 AM 40.1 °F 32.7 °F 34.2 °F 79% 30.19 in 10.0 mi NNE 12.7 mph - N/A   Unknown
7:35 AM 40.6 °F 35.4 °F 34.3 °F 78% 30.21 in 10.0 mi NNE 8.1 mph - N/A   Unknown
8:35 AM 42.3 °F 35.1 °F 32.9 °F 69% 30.24 in 10.0 mi NE 13.8 mph - N/A   Unknown
8:55 AM 42.8 °F 34.5 °F 33.1 °F 69% 30.24 in 10.0 mi NNE 18.4 mph 23.0 mph N/A   Unknown
9:15 AM 44.6 °F 36.9 °F 33.8 °F 66% 30.25 in 10.0 mi NNE 18.4 mph 23.0 mph N/A   Unknown
9:35 AM 45.3 °F 38.7 °F 34.5 °F 66% 30.25 in 10.0 mi NE 15.0 mph 24.2 mph N/A   Unknown
9:55 AM 46.6 °F - 35.1 °F 64% 30.26 in 10.0 mi NE 19.6 mph 23.0 mph N/A   Unknown
10:15 AM 48.6 °F - 36.1 °F 62% 30.26 in 10.0 mi NE 13.8 mph 23.0 mph N/A   Unknown
10:35 AM 50.5 °F - 37.0 °F 60% 30.26 in 10.0 mi NE 12.7 mph 21.9 mph N/A   Unknown
11:15 AM 52.5 °F - 37.6 °F 57% 30.24 in 10.0 mi NE 15.0 mph 21.9 mph N/A   Unknown
7:15 PM 51.6 °F - 44.6 °F 77% 30.19 in 10.0 mi NE 9.2 mph - N/A   Unknown
7:35 PM 51.3 °F - 44.6 °F 78% 30.20 in 10.0 mi NE 8.1 mph - N/A   Unknown
7:55 PM 50.9 °F - 44.8 °F 80% 30.20 in 10.0 mi NE 9.2 mph - N/A   Unknown
8:15 PM 50.4 °F - 44.4 °F 80% 30.20 in 10.0 mi NE 9.2 mph - N/A   Unknown
8:35 PM 49.8 °F - 44.2 °F 81% 30.20 in 10.0 mi NE 10.4 mph - N/A   Unknown
8:55 PM 49.3 °F - 44.2 °F 83% 30.21 in 10.0 mi NE 9.2 mph - N/A   Unknown
9:15 PM 48.9 °F - 43.9 °F 83% 30.20 in 10.0 mi NE 9.2 mph - N/A   Unknown
9:35 PM 48.2 °F - 43.9 °F 85% 30.21 in 10.0 mi NE 8.1 mph - N/A   Unknown
9:55 PM 48.0 °F - 43.5 °F 84% 30.20 in 10.0 mi NE 8.1 mph - N/A   Unknown
10:15 PM 47.7 °F - 43.3 °F 85% 30.20 in 10.0 mi NE 8.1 mph - N/A   Unknown
10:35 PM 47.3 °F - 43.2 °F 86% 30.20 in 10.0 mi NNE 10.4 mph - N/A   Unknown
10:55 PM 47.1 °F - 43.2 °F 86% 30.20 in 10.0 mi NE 9.2 mph - N/A   Unknown
11:15 PM 46.9 °F - 43.2 °F 87% 30.19 in 10.0 mi NE 8.1 mph - N/A   Unknown
11:55 PM 46.2 °F 41.7 °F 42.6 °F 87% 30.18 in 10.0 mi NNE 9.2 mph - N/A   Unknown